www.pogodaiklimat.ru

Погода и климат >> Архив погоды >> Мексика >> Ejido Nuevo Leon


ПОГОДА в Ejido Nuevo Leon

  • Прогноз погоды в Ejido Nuevo Leon
  • Монитор погоды в Ejido Nuevo Leon
  • Климат города

АРХИВ ПОГОДЫ в Ejido Nuevo Leon

Время (UTC), дата Ветер
(напр.,м/с)
 
Видим.   Явления Облачность Т
(С)
Тd
(С)
f
(%)
Тe
(С)
Тes
(С)
Комфортность P
(гПа)
Po
(гПа)
Тmin
(С)
Tmax
(С)
R
(мм)
R24
(мм)
S
(см)
18 12.09 С 3 10 км ясно +36.4 +20.4 39 +42 +54 опасность
перегрева
1010.4 1009.1 +23.0 +37.2
21 12.09 СЗ 2 10 км ясно +41.3 +21.0 31 +47 +62 опасность
перегрева
1007.8 1006.5
00 13.09 ЮВ 2 10 км ясно +42.7 +23.9 35 +53 +56 опасность
перегрева
1005.8 1004.5 +23.0 +43.1
03 13.09 В 1 200 м ясно +36.5 +24.9 51 +49 +49 опасность
перегрева
1005.7 1004.4
06 13.09 В 1 200 м ясно +32.4 +22.8 57 +42 +42 опасность
перегрева
1006.8 1005.5 +23.0 +43.1
09 13.09 В 2 200 м ясно +28.9 +22.4 68 +38 +38 очень
душно
1006.6 1005.3
12 13.09 Ю 1 200 м ясно +26.3 +22.0 77 +34 +34 очень
душно
1006.6 1005.3 +25.8 +43.1
15 13.09 Ю 1 10 км ясно +27.1 +22.5 76 +36 +38 очень
душно
1008.0 1006.7
18 13.09 В 2 10 км ясно +36.6 +22.7 45 +46 +60 опасность
перегрева
1008.0 1006.7 +25.2 +38.5
21 13.09 В 3 10 км ясно +41.3 +23.4 36 +51 +63 опасность
перегрева
1005.5 1004.2
00 14.09 ЮВ 4 10 км ясно +42.0 +21.5 31 +49 +51 опасность
перегрева
1002.7 1001.4 +25.2 +42.5
03 14.09 Ю 3 200 м ясно +36.2 +20.9 41 +43 +43 опасность
перегрева
1003.1 1001.9
06 14.09 В 3 200 м ясно +32.5 +17.4 41 +36 +36 очень
душно
1004.7 1003.4 +25.2 +42.5
12 14.09 С 4 200 м ясно +23.5 +13.1 52 +26 +26 жарко 1006.3 1005.0 +23.4 +42.5
15 14.09 С 4 10 км ясно +22.9 +13.5 55 +26 +27 жарко 1008.0 1006.7
18 14.09 СЗ 4 10 км ясно +30.3 +12.8 34 +31 +40 жарко 1008.6 1007.3 +21.8 +32.4
21 14.09 СЗ 3 10 км ясно +35.3 +13.7 27 +36 +48 очень
жарко
1006.7 1005.4
00 15.09 СЗ 3 10 км ясно +35.8 +15.9 31 +38 +40 очень
душно
1005.3 1004.0 +21.8 +36.5
03 15.09 СЗ 3 200 м ясно +29.8 +16.3 44 +33 +33 душно 1006.0 1004.7
06 15.09 С 1 200 м ясно +25.7 +16.1 55 +29 +29 душно 1006.8 1005.5 +21.8 +36.5
09 15.09 В 1 200 м ясно +21.9 +16.2 70 +26 +26 душно 1007.0 1005.7
12 15.09 СВ 1 200 м ясно +19.8 +15.7 77 +23 +23 комфорт 1007.2 1005.9 +19.5 +36.5
15 15.09 ЮВ 1 10 км ясно +19.5 +15.6 78 +22 +25 комфорт 1008.4 1007.1
18 15.09 СЗ 2 10 км ясно +28.6 +16.6 48 +32 +45 душно 1009.1 1007.8 +18.1 +36.5
21 15.09 ЮВ 2 10 км ясно +34.6 +17.7 37 +38 +53 опасность
солнечного
удара
1007.3 1006.0
00 16.09 В 2 10 км ясно +36.0 +19.2 37 +41 +44 опасность
перегрева
1005.5 1004.2 +18.1 +36.8
03 16.09 В 1 2000 м ясно +30.6 +18.0 47 +35 +35 очень
душно
1005.8 1004.5
06 16.09 СВ 1 2000 м ясно +26.4 +15.3 50 +29 +29 жарко 1007.5 1006.2 +18.1 +36.8
09 16.09 СВ 2 2000 м ясно +22.4 +14.2 60 +26 +26 жарко 1007.8 1006.5
12 16.09 С 1 2000 м ясно +19.8 +15.4 76 +23 +23 комфорт 1008.1 1006.8 +18.1 +36.8
15 16.09 С 1 10 км ясно +21.2 +14.5 66 +24 +26 комфорт 1009.8 1008.5
18 16.09 С 3 10 км ясно +30.8 +15.7 40 +33 +44 душно 1010.5 1009.2 +18.0 +32.3
21 16.09 В 1 10 км ясно +35.2 +18.5 37 +39 +56 опасность
солнечного
удара
1008.4 1007.1
00 17.09 ЮВ 1 10 км ясно +36.6 +19.3 36 +41 +45 опасность
перегрева
1006.8 1005.5 +18.0 +39.0
03 17.09 С 1 2000 м ясно +31.2 +19.1 49 +37 +37 очень
душно
1006.6 1005.3
06 17.09 Ю 1 2000 м ясно +26.4 +20.1 68 +32 +32 очень
душно
1007.9 1006.6 +18.0 +37.0
09 17.09 СВ 2 2000 м ясно +23.2 +14.4 58 +27 +27 душно 1008.0 1006.7
12 17.09 С 1 2000 м ясно +22.2 +19.9 87 +28 +28 душно 1008.4 1007.1 +21.4 +36.6
15 17.09 С 1 10 км ясно +23.0 +19.5 81 +30 +32 очень
душно
1010.3 1009.0
21 17.09 В 2 10 км ясно +35.7 +21.7 44 +44 +58 опасность
перегрева
1009.3 1008.0
00 18.09 В 2 10 км ясно +37.0 +19.8 37 +43 +45 опасность
перегрева
1007.7 1006.4 +21.0 +37.3
03 18.09 СВ 1 200 м ясно +31.8 +20.8 52 +39 +39 очень
душно
1008.0 1006.7
09 18.09 Ю 1 200 м ясно +23.0 +19.8 82 +30 +30 очень
душно
1009.5 1008.2
12 18.09 В 1 200 м ясно +20.9 +19.0 89 +26 +26 душно 1009.6 1008.3 +20.4 +37.3
15 18.09 Ю 1 10 км ясно +21.8 +19.8 88 +27 +29 душно 1011.0 1009.7
18 18.09 ЮВ 2 10 км ясно +32.0 +22.6 58 +42 +55 опасность
перегрева
1011.5 1010.2 +20.2 +32.6
21 18.09 В 3 10 км ясно +36.4 +21.1 41 +43 +55 опасность
перегрева
1008.9 1007.6
00 19.09 В 1 10 км ясно +37.0 +21.9 42 +45 +48 опасность
перегрева
1007.1 1005.8 +20.2 +37.8
03 19.09 ЮВ 2 10 км ясно +30.0 +21.0 59 +38 +38 очень
душно
1007.6 1006.3
06 19.09 ЮВ 2 200 м ясно +27.0 +23.1 79 +36 +36 очень
душно
1008.1 1006.8 +20.2 +37.8
09 19.09 ЮВ 1 200 м ясно +24.2 +19.2 74 +29 +29 душно 1007.6 1006.3

 

Местоположение метеостанции Ejido Nuevo Leon (Мексика): широта 32.40 долгота -115.10 высота над уровнем моря 11 м.

В архиве по умолчанию представлена погода в Ejido Nuevo Leon за последнюю неделю. Архивные данные за месяц целиком и за предыдущие месяцы, начиная с января 2011 года, Вы можете получить, выбрав интересующий диапазон дат из раскрывающегося списка и нажав кнопку "Ввод!".

Внимание! Время в таблицах - всемирное. Для получения местного времени необходимо прибавить поправку, которая в Ejido Nuevo Leon равна -8 ч.

Смотрите также архив погоды в соседних городах и на ближайших метеорологических станциях:

Погода в San Felipe (Мексика) (155 км)
Погода в Puerto Penasco (Мексика) (191 км)
Погода в Altar Son (Мексика) (362 км)
Погода в Hermosillo (Мексика) (534 км)
Погода в Hermosillo la Magna (Мексика) (542 км)
Погода в Pilares de Nacoz (Мексика) (562 км)
Погода в Santa Rosalia (Мексика) (632 км)
Погода в Guaymas Upper Air Site (Мексика) (643 км)
Погода в Empalme (Мексика) (651 км)
Погода в Nueva Casas Grandes (Мексика) (720 км)

Пояснения к столбцам:

Ветер - указаны скорость ветра в м/с - средняя за 10 мин, порывы в срок и между сроками (в фигурных скобках) и направление, откуда дует ветер: С - северный, СВ - северо-восточный, В - восточный, ЮВ - юго-восточный, Ю - южный, ЮЗ - юго-западный, З - западный, СЗ - северо-западный.
Видимость - горизонтальная дальность видимости в метрах или километрах. При видимости от 1 до 10 км при отсутствии осадков обычно наблюдается дымка, при ухудшении видимости до 1 км и менее - туман. В сухую погоду видимость может ухудшаться дымом, пылью или мглою.
Явления - указаны атмосферные явления, наблюдавшиеся в срок или в последний час перед сроком; фигурными скобками обозначены явления, наблюдавшиеся между сроками (за 1-3 часа до срока); квадратными скобками обозначены град или гололедные отложения с указанием их диаметра в мм.
Облачность - указаны через наклонную черту общая и нижняя облачность в баллах и высота нижней границы облаков в метрах; квадратными скобками обозначены формы облаков: Ci - перистые, Cs - перисто-слоистые, Cc - перисто-кучевые, Ac - высококучевые, As - высокослоистые, Sc - слоисто-кучевые, Ns - слоисто-дождевые, Cu - кучевые, Cb - кучево-дождевые. Подробнее классификацию облаков см. в Атласе облаков (PDF).
T - Температура воздуха - температура, измеренная на высоте 2 м над землей.
Td - Температура точки росы - температура, при понижении до которой содержащийся в воздухе водяной пар достигнет насыщения.
f - Относительная влажность воздуха - влажноcть воздуха, измеренная на высоте 2 м над землей.
Te - Эффективная температура - температура, которую ощущает одетый по сезону человек в тени. Характеристика душности погоды. При расчете учитывается влияние влажности воздуха и скорости ветра на теплоощущения человека.
Tes - Эффективная температура на солнце - температура, которую ощущает человек, с поправкой на солнечный нагрев. Характеристика знойности погоды. Зависит от высоты солнца над горизонтом, облачности и скорости ветра. Ночью, в пасмурную погоду, а также при ветре 12 м/с и более поправка равна нулю.
P - Атмосферное давление - приведенное к уровню моря атмосферное давление.
Po - Атмосферное давление - измеренное на уровне метеостанции атмосферное давление.
Tmin - Минимальная температура - минимум температуры воздуха на высоте 2 м над землей.
Tmax - Максимальная температура - максимум температуры воздуха на высоте 2 м над землей.
R - Количество осадков - Количество выпавших осадков за период времени, мм. При наведении курсора мыши на число - период времени, за который выпало указанное количество осадков.
R24 - Количество осадков - Количество выпавших осадков за 24 часа, мм.
S - Снежный покров - Высота снежного покрова, см. При наведении курсора мыши на число - состояние снежного покрова и степень покрытия местности в баллах.